Zurück zum Katalog

COSMOS 1522

AktivNavigationLEO
NORAD 14611·PAYLOAD·🇷🇺 Russia

Gestartet Jan 5, 1984 von Plesetsk Cosmodrome

Loading…

Nächste Überflüge (nächste 24 Stunden)

TLE

AktuellSource: Space-Track

Epoche: Sep 14, 2026, 14:42 UTC

1 14611U 84001A   26257.61306494 -.00000005  00000-0  74619-4 0  9998
2 14611  74.0081 304.2079 0019477  45.6650 122.2762 12.47066901943514

Verfolge COSMOS 1522 in Echtzeit mit AllMySat

Download on the App Store